Total_Precipitation_Accumulation
0.00 0.00 0.00 0.00 0.00 0.00 0.00 0.00 0.00 0.00 0.00 0.00 0.00 0.00 0.02 0.04 0.04 0.04 0.04 0.25 0.16 0.12 0.16 0.23 0.27 0.36 0.57 0.82 0.86 0.72 0.48 0.40 0.25 0.23 0.28 0.27 0.13 0.03 0.03 0.03 0.03 0.02 0.08
0.00 0.00 0.00 0.00 0.00 0.00 0.00 0.00 0.00 0.00 0.00 0.00 0.00 0.00 0.00 0.01 0.04 0.04 0.02 0.13 0.26 0.17 0.13 0.17 0.21 0.24 0.26 0.37 0.65 1.08 1.14 0.96 1.07 0.72 0.49 0.27 0.25 0.18 0.09 0.04 0.03 0.03 0.04
0.00 0.00 0.00 0.00 0.00 0.00 0.00 0.00 0.00 0.00 0.00 0.00 0.00 0.00 0.00 0.00 0.00 0.00 0.01 0.02 0.16 0.21 0.16 0.14 0.16 0.19 0.29 0.46 0.67 0.74 0.86 0.94 0.89 0.59 0.35 0.27 0.28 0.20 0.18 0.14 0.07 0.06 0.04
0.00 0.00 0.00 0.00 0.00 0.00 0.00 0.00 0.00 0.00 0.00 0.00 0.00 0.00 0.00 0.00 0.00 0.00 0.01 0.01 0.01 0.09 0.19 0.14 0.15 0.14 0.20 0.28 0.35 0.74 1.27 0.87 0.53 0.31 0.29 0.34 0.30 0.29 0.23 0.18 0.16 0.13 0.10
0.00 0.00 0.00 0.00 0.00 0.00 0.00 0.00 0.00 0.00 0.00 0.00 0.00 0.00 0.00 0.00 0.00 0.00 0.00 0.00 0.01 0.02 0.06 0.21 0.20 0.16 0.20 0.24 0.34 0.55 0.85 0.87 0.82 0.89 0.72 0.64 0.68 0.65 0.61 0.71 0.56 0.29 0.25
0.00 0.00 0.00 0.00 0.00 0.00 0.00 0.00 0.00 0.00 0.00 0.00 0.00 0.00 0.00 0.00 0.00 0.00 0.00 0.00 0.00 0.00 0.00 0.06 0.20 0.20 0.31 0.46 0.48 0.58 1.05 1.64 1.81 1.72 1.53 1.25 0.85 0.63 0.61 0.53 0.44 0.41 0.31
0.00 0.00 0.00 0.00 0.00 0.00 0.00 0.00 0.00 0.00 0.00 0.00 0.00 0.00 0.00 0.00 0.00 0.00 0.00 0.00 0.00 0.00 0.00 0.02 0.07 0.14 0.18 0.23 0.23 0.23 0.28 0.33 0.43 0.83 1.30 1.08 0.70 0.58 0.43 0.31 0.34 0.39 0.33
0.00 0.00 0.00 0.00 0.00 0.00 0.00 0.00 0.00 0.00 0.00 0.00 0.00 0.00 0.00 0.00 0.00 0.00 0.00 0.00 0.00 0.00 0.00 0.01 0.04 0.07 0.14 0.22 0.22 0.32 0.52 0.42 0.41 0.55 0.58 0.74 0.72 0.74 0.55 0.57 0.49 0.33 0.31
0.00 0.00 0.00 0.00 0.00 0.00 0.00 0.00 0.00 0.00 0.00 0.00 0.00 0.00 0.01 0.01 0.00 0.00 0.00 0.00 0.00 0.00 0.00 0.00 0.00 0.04 0.13 0.24 0.38 0.45 0.53 0.66 0.74 0.87 1.13 1.24 1.09 0.75 0.77 0.65 0.57 0.55 0.39
0.00 0.00 0.00 0.00 0.00 0.00 0.00 0.00 0.00 0.00 0.00 0.00 0.00 0.00 0.01 0.01 0.02 0.01 0.00 0.00 0.00 0.00 0.00 0.00 0.00 0.00 0.02 0.11 0.27 0.49 0.56 0.46 0.46 0.59 0.80 0.99 0.85 0.63 0.37 0.36 0.42 0.38 0.44
0.00 0.00 0.00 0.00 0.00 0.00 0.00 0.00 0.00 0.00 0.00 0.01 0.01 0.00 0.00 0.00 0.00 0.01 0.01 0.00 0.00 0.00 0.00 0.00 0.00 0.00 0.01 0.04 0.09 0.14 0.41 0.79 0.91 0.79 0.79 0.78 0.88 0.95 0.79 0.50 0.37 0.36 0.36
0.00 0.00 0.00 0.00 0.00 0.00 0.00 0.00 0.00 0.00 0.00 0.00 0.00 0.00 0.00 0.01 0.01 0.02 0.02 0.00 0.00 0.00 0.00 0.00 0.00 0.00 0.00 0.00 0.06 0.13 0.17 0.20 0.41 0.78 1.12 1.06 0.91 0.87 0.93 0.78 0.60 0.47 0.44
0.00 0.00 0.00 0.00 0.00 0.00 0.00 0.00 0.00 0.00 0.00 0.00 0.00 0.00 0.00 0.00 0.00 0.01 0.03 0.01 0.00 0.00 0.00 0.00 0.00 0.00 0.00 0.00 0.01 0.03 0.08 0.16 0.23 0.29 0.52 1.00 1.12 1.09 1.06 1.01 0.78 0.59 0.50
0.00 0.00 0.00 0.00 0.00 0.00 0.00 0.00 0.00 0.00 0.00 0.00 0.00 0.00 0.00 0.00 0.00 0.01 0.04 0.06 0.05 0.00 0.00 0.00 0.00 0.00 0.00 0.00 0.00 0.00 0.15 0.21 0.15 0.30 0.51 0.59 0.69 0.82 0.80 0.77 0.78 0.69 0.61
0.00 0.00 0.00 0.00 0.00 0.00 0.00 0.00 0.00 0.00 0.00 0.00 0.00 0.00 0.00 0.00 0.01 0.01 0.03 0.05 0.10 0.10 0.02 0.00 0.00 0.00 0.00 0.00 0.00 0.00 0.01 0.11 0.24 0.25 0.36 0.74 0.75 0.80 0.94 0.93 0.82 0.71 0.51
0.00 0.00 0.00 0.00 0.00 0.00 0.00 0.00 0.00 0.00 0.00 0.00 0.00 0.00 0.00 0.00 0.00 0.01 0.03 0.02 0.04 0.07 0.10 0.00 0.00 0.00 0.00 0.00 0.00 0.00 0.00 0.00 0.12 0.16 0.13 0.30 0.67 0.64 0.56 0.76 0.82 0.86 0.87
0.00 0.00 0.00 0.00 0.00 0.00 0.00 0.00 0.00 0.00 0.00 0.00 0.00 0.00 0.00 0.00 0.01 0.02 0.01 0.02 0.02 0.06 0.08 0.01 0.00 0.00 0.00 0.00 0.00 0.00 0.00 0.00 0.03 0.10 0.12 0.10 0.26 0.64 0.70 0.62 0.63 0.63 0.68
0.00 0.00 0.00 0.00 0.00 0.00 0.00 0.00 0.00 0.00 0.00 0.00 0.00 0.00 0.00 0.01 0.02 0.01 0.01 0.02 0.04 0.03 0.03 0.02 0.00 0.00 0.00 0.00 0.00 0.00 0.00 0.00 0.03 0.07 0.04 0.02 0.03 0.09 0.42 0.58 0.63 0.64 0.62
0.01 0.01 0.01 0.00 0.00 0.00 0.00 0.00 0.00 0.00 0.00 0.00 0.00 0.00 0.01 0.03 0.01 0.01 0.03 0.04 0.04 0.01 0.01 0.01 0.01 0.00 0.00 0.00 0.00 0.00 0.00 0.00 0.01 0.05 0.05 0.04 0.02 0.03 0.04 0.20 0.45 0.54 0.60
0.03 0.02 0.02 0.02 0.02 0.01 0.01 0.00 0.00 0.00 0.00 0.00 0.00 0.01 0.02 0.01 0.01 0.05 0.05 0.04 0.02 0.02 0.01 0.01 0.01 0.00 0.00 0.00 0.00 0.00 0.00 0.00 0.00 0.02 0.03 0.02 0.02 0.02 0.03 0.03 0.07 0.22 0.43
0.06 0.06 0.06 0.05 0.04 0.02 0.01 0.01 0.00 0.00 0.00 0.00 0.00 0.01 0.01 0.01 0.02 0.03 0.06 0.03 0.03 0.05 0.04 0.02 0.01 0.01 0.01 0.01 0.00 0.00 0.01 0.01 0.00 0.05 0.04 0.02 0.02 0.02 0.02 0.02 0.03 0.09 0.21
0.03 0.03 0.03 0.02 0.02 0.01 0.01 0.01 0.01 0.00 0.00 0.00 0.01 0.00 0.00 0.01 0.01 0.03 0.01 0.02 0.02 0.04 0.07 0.06 0.03 0.04 0.03 0.01 0.01 0.02 0.03 0.04 0.03 0.05 0.16 0.07 0.04 0.03 0.01 0.00 0.04 0.05 0.05
0.10 0.08 0.06 0.05 0.05 0.03 0.03 0.03 0.02 0.00 0.00 0.00 0.00 0.00 0.00 0.01 0.02 0.01 0.01 0.02 0.00 0.00 0.02 0.06 0.18 0.07 0.05 0.03 0.09 0.10 0.04 0.04 0.04 0.02 0.06 0.12 0.10 0.05 0.02 0.01 0.02 0.01 0.02
0.23 0.21 0.21 0.20 0.18 0.12 0.10 0.05 0.01 0.00 0.00 0.00 0.00 0.00 0.01 0.01 0.02 0.01 0.04 0.03 0.00 0.00 0.01 0.06 0.10 0.07 0.08 0.08 0.15 0.17 0.13 0.06 0.02 0.01 0.10 0.15 0.10 0.08 0.02 0.01 0.01 0.01 0.02
0.38 0.35 0.30 0.25 0.17 0.11 0.09 0.04 0.00 0.00 0.00 0.00 0.00 0.00 0.00 0.01 0.01 0.02 0.05 0.02 0.01 0.00 0.01 0.02 0.04 0.06 0.08 0.08 0.10 0.19 0.08 0.09 0.05 0.04 0.09 0.16 0.08 0.06 0.09 0.04 0.01 0.01 0.01
0.39 0.31 0.25 0.17 0.11 0.09 0.09 0.04 0.01 0.00 0.00 0.00 0.00 0.00 0.00 0.00 0.01 0.03 0.02 0.03 0.05 0.04 0.01 0.01 0.02 0.03 0.06 0.09 0.09 0.19 0.25 0.28 0.15 0.28 0.15 0.17 0.15 0.10 0.18 0.05 0.04 0.03 0.03